Powrót do katalogu

OPS 4682 DEB

AktywnyPO
NORAD 38441·DEBRIS·🇺🇸 United States

Wystrzelony Apr 3, 1965 z Vandenberg Space Force Base

Loading…

Następne Przeloty (najbliższe 24 godziny)

TLE

Starzejące sięSource: Space-Track

Epoka: Sep 10, 2026, 01:48 UTC

1 38441U 65027EW  26253.07560152  .00000379  00000-0  13017-2 0  9997
2 38441  90.2516  10.0071 0027513 314.9873  44.9018 12.96226565623413

Śledź OPS 4682 DEB w czasie rzeczywistym z AllMySat

Download on the App Store